Time,TemperatureF,DewpointF,PressureIn,WindDirection,WindDirectionDegrees,WindSpeedMPH,WindSpeedGustMPH,Humidity,HourlyPrecipIn,Conditions,Clouds,dailyrainin,SoftwareType,DateUTC
2013-05-08 00:01:00,58.3,42.7,29.84,ENE,68,1.8,2.0,56,0.00,,,0.00,WUHU216HW,2013-05-07 23:01:00,
2013-05-08 00:06:00,58.1,42.9,29.83,ENE,68,1.1,1.8,57,0.00,,,0.00,WUHU216HW,2013-05-07 23:06:00,
2013-05-08 00:11:00,58.1,42.9,29.83,ESE,113,2.9,2.9,57,0.00,,,0.00,WUHU216HW,2013-05-07 23:11:00,
2013-05-08 00:16:00,58.0,42.3,29.83,ESE,113,2.7,2.9,56,0.00,,,0.00,WUHU216HW,2013-05-07 23:16:00,
2013-05-08 00:21:00,58.0,42.3,29.83,SE,135,4.9,4.9,56,0.00,,,0.00,WUHU216HW,2013-05-07 23:21:00,
2013-05-08 00:26:00,58.0,41.9,29.83,ESE,113,4.0,4.9,55,0.00,,,0.00,WUHU216HW,2013-05-07 23:26:00,
2013-05-08 00:31:00,58.1,41.6,29.82,SE,135,4.3,4.9,54,0.00,,,0.00,WUHU216HW,2013-05-07 23:31:00,
2013-05-08 00:36:00,58.3,41.2,29.82,SE,135,3.4,4.3,53,0.00,,,0.00,WUHU216HW,2013-05-07 23:36:00,
2013-05-08 00:41:00,58.1,40.6,29.82,ESE,113,3.8,3.8,52,0.00,,,0.00,WUHU216HW,2013-05-07 23:41:00,
2013-05-08 00:46:00,58.1,40.6,29.81,ENE,68,1.1,3.8,52,0.00,,,0.00,WUHU216HW,2013-05-07 23:46:00,
2013-05-08 00:51:00,58.1,40.6,29.81,NNE,23,1.1,3.8,52,0.00,,,0.00,WUHU216HW,2013-05-07 23:51:00,
2013-05-08 00:56:00,58.0,40.5,29.81,ESE,113,1.3,1.8,52,0.00,,,0.00,WUHU216HW,2013-05-07 23:56:00,
2013-05-08 01:01:00,57.8,40.8,29.81,NNE,23,1.1,1.8,53,0.00,,,0.00,WUHU216HW,2013-05-08 00:01:00,
2013-05-08 01:06:00,57.4,40.4,29.81,ENE,68,1.8,1.8,53,0.00,,,0.00,WUHU216HW,2013-05-08 00:06:00,
2013-05-08 01:11:00,57.2,40.8,29.81,SE,135,0.4,1.8,54,0.00,,,0.00,WUHU216HW,2013-05-08 00:11:00,
2013-05-08 01:16:00,56.9,39.4,29.80,East,90,1.8,1.8,52,0.00,,,0.00,WUHU216HW,2013-05-08 00:16:00,
2013-05-08 01:21:00,56.9,39.4,29.80,East,90,1.1,1.8,52,0.00,,,0.00,WUHU216HW,2013-05-08 00:21:00,
2013-05-08 01:26:00,56.5,39.1,29.79,East,90,2.9,2.9,52,0.00,,,0.00,WUHU216HW,2013-05-08 00:26:00,
2013-05-08 01:31:00,56.5,39.1,29.79,ENE,68,2.2,2.9,52,0.00,,,0.00,WUHU216HW,2013-05-08 00:31:00,
2013-05-08 01:36:00,56.2,39.3,29.79,ESE,113,2.0,2.2,53,0.00,,,0.00,WUHU216HW,2013-05-08 00:36:00,
2013-05-08 01:41:00,56.0,38.1,29.78,ESE,113,3.1,3.1,51,0.00,,,0.00,WUHU216HW,2013-05-08 00:41:00,
2013-05-08 01:46:00,55.8,37.9,29.78,ENE,68,2.0,3.1,51,0.00,,,0.00,WUHU216HW,2013-05-08 00:46:00,
2013-05-08 01:51:00,55.8,37.9,29.78,SE,135,2.2,2.2,51,0.00,,,0.00,WUHU216HW,2013-05-08 00:51:00,
2013-05-08 01:56:00,55.8,38.3,29.78,NNW,338,1.1,2.2,52,0.00,,,0.00,WUHU216HW,2013-05-08 00:56:00,
2013-05-08 02:01:00,55.6,38.2,29.78,ESE,113,1.6,2.2,52,0.00,,,0.00,WUHU216HW,2013-05-08 01:01:00,
2013-05-08 02:06:00,55.4,38.5,29.78,SE,135,2.2,2.2,53,0.00,,,0.00,WUHU216HW,2013-05-08 01:06:00,
2013-05-08 02:11:00,55.4,38.5,29.78,SE,135,5.8,5.8,53,0.00,,,0.00,WUHU216HW,2013-05-08 01:11:00,
2013-05-08 02:16:00,55.3,38.4,29.78,ESE,113,2.2,5.8,53,0.00,,,0.00,WUHU216HW,2013-05-08 01:16:00,
2013-05-08 02:21:00,55.3,38.8,29.78,ESE,113,1.8,5.8,54,0.00,,,0.00,WUHU216HW,2013-05-08 01:21:00,
2013-05-08 02:26:00,55.1,39.1,29.78,ENE,68,2.5,2.5,55,0.00,,,0.00,WUHU216HW,2013-05-08 01:26:00,
2013-05-08 02:31:00,55.1,39.1,29.77,East,90,1.1,2.5,55,0.00,,,0.00,WUHU216HW,2013-05-08 01:31:00,
2013-05-08 02:36:00,55.1,39.6,29.77,North,0,1.6,2.5,56,0.00,,,0.00,WUHU216HW,2013-05-08 01:36:00,
2013-05-08 02:41:00,55.1,40.1,29.77,East,90,1.6,2.9,57,0.00,,,0.00,WUHU216HW,2013-05-08 01:41:00,
2013-05-08 02:46:00,54.7,40.1,29.77,ENE,68,1.6,2.9,58,0.00,,,0.00,WUHU216HW,2013-05-08 01:46:00,
2013-05-08 02:51:00,54.5,40.1,29.76,ENE,68,2.2,2.2,58,0.00,,,0.00,WUHU216HW,2013-05-08 01:51:00,
2013-05-08 02:56:00,54.5,40.1,29.76,NE,45,2.5,2.5,58,0.00,,,0.00,WUHU216HW,2013-05-08 01:56:00,
2013-05-08 03:01:00,54.4,40.8,29.76,SE,135,1.3,3.8,60,0.00,,,0.00,WUHU216HW,2013-05-08 02:01:00,
2013-05-08 03:06:00,54.0,40.5,29.76,East,90,3.4,3.8,60,0.00,,,0.00,WUHU216HW,2013-05-08 02:06:00,
2013-05-08 03:11:00,53.8,40.7,29.76,ESE,113,3.6,3.6,61,0.00,,,0.00,WUHU216HW,2013-05-08 02:11:00,
2013-05-08 03:16:00,53.6,41.0,29.76,SE,135,1.1,3.6,62,0.00,,,0.00,WUHU216HW,2013-05-08 02:16:00,
2013-05-08 03:21:00,53.6,41.0,29.75,ENE,68,1.3,1.3,62,0.00,,,0.00,WUHU216HW,2013-05-08 02:21:00,
2013-05-08 03:26:00,53.5,41.1,29.75,NE,45,4.0,4.0,63,0.00,,,0.00,WUHU216HW,2013-05-08 02:26:00,
2013-05-08 03:31:00,53.5,41.1,29.75,East,90,2.7,4.0,63,0.00,,,0.00,WUHU216HW,2013-05-08 02:31:00,
2013-05-08 03:36:00,53.3,41.4,29.74,ESE,113,1.3,4.0,64,0.00,,,0.00,WUHU216HW,2013-05-08 02:36:00,
2013-05-08 03:41:00,53.3,41.4,29.74,SE,135,4.3,4.3,64,0.00,,,0.00,WUHU216HW,2013-05-08 02:41:00,
2013-05-08 03:46:00,53.3,41.4,29.73,SE,135,3.4,4.3,64,0.00,,,0.00,WUHU216HW,2013-05-08 02:46:00,
2013-05-08 03:51:00,53.5,41.6,29.73,East,90,2.0,4.3,64,0.00,,,0.00,WUHU216HW,2013-05-08 02:51:00,
2013-05-08 03:56:00,53.5,41.6,29.73,SE,135,0.9,2.5,64,0.00,,,0.00,WUHU216HW,2013-05-08 02:56:00,
2013-05-08 04:01:00,53.6,41.8,29.73,NE,45,2.5,2.5,64,0.00,,,0.00,WUHU216HW,2013-05-08 03:01:00,
2013-05-08 04:06:00,53.8,41.5,29.72,SE,135,2.2,2.5,63,0.00,,,0.00,WUHU216HW,2013-05-08 03:06:00,
2013-05-08 04:11:00,54.4,41.6,29.72,SE,135,3.8,5.1,62,0.00,,,0.00,WUHU216HW,2013-05-08 03:11:00,
2013-05-08 04:16:00,54.2,41.9,29.72,East,90,2.5,5.1,63,0.00,,,0.00,WUHU216HW,2013-05-08 03:16:00,
2013-05-08 04:21:00,54.2,41.9,29.72,WNW,293,4.0,4.0,63,0.00,,,0.00,WUHU216HW,2013-05-08 03:21:00,
2013-05-08 04:26:00,54.4,42.0,29.71,East,90,2.5,4.0,63,0.00,,,0.00,WUHU216HW,2013-05-08 03:26:00,
2013-05-08 04:31:00,54.5,42.2,29.71,East,90,3.6,3.6,63,0.00,,,0.00,WUHU216HW,2013-05-08 03:31:00,
2013-05-08 04:36:00,54.7,42.3,29.71,SE,135,4.0,4.0,63,0.00,,,0.00,WUHU216HW,2013-05-08 03:36:00,
2013-05-08 04:41:00,54.5,42.2,29.71,ESE,113,3.6,4.0,63,0.00,,,0.00,WUHU216HW,2013-05-08 03:41:00,
2013-05-08 04:46:00,54.4,42.4,29.70,East,90,4.3,4.3,64,0.00,,,0.00,WUHU216HW,2013-05-08 03:46:00,
2013-05-08 04:51:00,54.4,42.4,29.70,East,90,4.0,4.3,64,0.00,,,0.00,WUHU216HW,2013-05-08 03:51:00,
2013-05-08 04:56:00,54.4,42.4,29.70,NE,45,3.1,4.3,64,0.00,,,0.00,WUHU216HW,2013-05-08 03:56:00,
2013-05-08 05:01:00,54.2,41.9,29.70,ESE,113,4.5,4.5,63,0.00,,,0.00,WUHU216HW,2013-05-08 04:01:00,
2013-05-08 05:06:00,54.0,42.0,29.69,ESE,113,3.4,4.5,64,0.00,,,0.00,WUHU216HW,2013-05-08 04:06:00,
2013-05-08 05:11:00,53.8,41.9,29.68,ESE,113,4.7,4.7,64,0.00,,,0.00,WUHU216HW,2013-05-08 04:11:00,
2013-05-08 05:16:00,53.6,41.8,29.68,ESE,113,2.0,4.7,64,0.00,,,0.00,WUHU216HW,2013-05-08 04:16:00,
2013-05-08 05:21:00,53.6,41.8,29.68,SE,135,4.5,4.7,64,0.00,,,0.00,WUHU216HW,2013-05-08 04:21:00,
2013-05-08 05:26:00,53.6,42.1,29.68,SE,135,8.3,8.3,65,0.00,,,0.00,WUHU216HW,2013-05-08 04:26:00,
2013-05-08 05:31:00,53.6,42.1,29.68,ENE,68,1.8,8.3,65,0.00,,,0.00,WUHU216HW,2013-05-08 04:31:00,
2013-05-08 05:36:00,53.5,42.4,29.68,SE,135,4.7,8.3,66,0.00,,,0.00,WUHU216HW,2013-05-08 04:36:00,
2013-05-08 05:41:00,53.6,42.5,29.67,ESE,113,1.8,4.7,66,0.00,,,0.00,WUHU216HW,2013-05-08 04:41:00,
2013-05-08 05:46:00,53.6,42.9,29.66,ENE,68,1.1,2.2,67,0.00,,,0.00,WUHU216HW,2013-05-08 04:46:00,
2013-05-08 05:51:00,54.0,42.8,29.66,SE,135,2.7,2.7,66,0.00,,,0.00,WUHU216HW,2013-05-08 04:51:00,
2013-05-08 05:56:00,54.7,43.1,29.66,East,90,0.9,2.7,65,0.00,,,0.00,WUHU216HW,2013-05-08 04:56:00,
2013-05-08 06:01:00,54.9,42.9,29.66,East,90,2.5,2.5,64,0.00,,,0.00,WUHU216HW,2013-05-08 05:01:00,
2013-05-08 06:06:00,54.9,42.9,29.65,ENE,68,5.4,5.4,64,0.00,,,0.00,WUHU216HW,2013-05-08 05:06:00,
2013-05-08 06:11:00,55.3,42.9,29.65,SSE,158,6.3,6.3,63,0.00,,,0.00,WUHU216HW,2013-05-08 05:11:00,
2013-05-08 06:16:00,55.6,42.8,29.65,ENE,68,2.7,6.3,62,0.00,,,0.00,WUHU216HW,2013-05-08 05:16:00,
2013-05-08 06:21:00,55.6,43.2,29.65,ESE,113,3.6,6.3,63,0.00,,,0.00,WUHU216HW,2013-05-08 05:21:00,
2013-05-08 06:26:00,55.3,43.3,29.65,ESE,113,3.1,3.6,64,0.00,,,0.00,WUHU216HW,2013-05-08 05:26:00,
2013-05-08 06:31:00,55.3,42.9,29.65,SSE,158,2.9,3.6,63,0.00,,,0.00,WUHU216HW,2013-05-08 05:31:00,
2013-05-08 06:36:00,55.3,42.9,29.64,SSE,158,4.3,4.3,63,0.00,,,0.00,WUHU216HW,2013-05-08 05:36:00,
2013-05-08 06:41:00,55.1,43.1,29.64,ESE,113,4.5,4.5,64,0.00,,,0.00,WUHU216HW,2013-05-08 05:41:00,
2013-05-08 06:46:00,55.1,43.1,29.64,ESE,113,5.8,5.8,64,0.00,,,0.00,WUHU216HW,2013-05-08 05:46:00,
2013-05-08 06:51:00,55.4,43.4,29.63,SE,135,2.7,5.8,64,0.00,,,0.00,WUHU216HW,2013-05-08 05:51:00,
2013-05-08 06:56:00,55.4,43.4,29.63,ESE,113,6.3,6.3,64,0.00,,,0.00,WUHU216HW,2013-05-08 05:56:00,
2013-05-08 07:01:00,55.4,43.4,29.63,East,90,2.2,6.3,64,0.00,,,0.00,WUHU216HW,2013-05-08 06:01:00,
2013-05-08 07:06:00,55.4,43.8,29.62,ESE,113,4.0,6.3,65,0.00,,,0.00,WUHU216HW,2013-05-08 06:06:00,
2013-05-08 07:11:00,55.1,43.9,29.63,East,90,3.8,4.0,66,0.00,,,0.00,WUHU216HW,2013-05-08 06:11:00,
2013-05-08 07:16:00,54.9,43.8,29.62,SE,135,3.4,4.0,66,0.00,,,0.00,WUHU216HW,2013-05-08 06:16:00,
2013-05-08 07:21:00,54.7,43.9,29.62,East,90,2.7,3.8,67,0.00,,,0.00,WUHU216HW,2013-05-08 06:21:00,
2013-05-08 07:26:00,55.1,43.9,29.62,East,90,5.4,5.4,66,0.00,,,0.00,WUHU216HW,2013-05-08 06:26:00,
2013-05-08 07:31:00,55.3,44.1,29.62,ENE,68,8.5,8.5,66,0.00,,,0.00,WUHU216HW,2013-05-08 06:31:00,
2013-05-08 07:36:00,55.4,44.3,29.62,East,90,2.0,8.5,66,0.00,,,0.00,WUHU216HW,2013-05-08 06:36:00,
2013-05-08 07:41:00,55.4,44.6,29.62,NNE,23,2.5,8.5,67,0.00,,,0.00,WUHU216HW,2013-05-08 06:41:00,
2013-05-08 07:46:00,55.3,44.9,29.62,SE,135,5.4,5.4,68,0.00,,,0.00,WUHU216HW,2013-05-08 06:46:00,
2013-05-08 07:51:00,55.1,45.1,29.61,ENE,68,2.9,5.4,69,0.00,,,0.00,WUHU216HW,2013-05-08 06:51:00,
2013-05-08 07:56:00,54.5,45.0,29.61,ESE,113,2.9,6.9,70,0.00,,,0.00,WUHU216HW,2013-05-08 06:56:00,
2013-05-08 08:01:00,54.4,45.6,29.61,SE,135,2.2,6.9,72,0.00,,,0.00,WUHU216HW,2013-05-08 07:01:00,
2013-05-08 08:06:00,54.0,45.2,29.62,East,90,2.9,2.9,72,0.00,,,0.00,WUHU216HW,2013-05-08 07:06:00,
2013-05-08 08:11:00,54.7,45.9,29.62,East,90,0.7,2.9,72,0.00,,,0.00,WUHU216HW,2013-05-08 07:11:00,
2013-05-08 08:16:00,55.1,45.9,29.61,ESE,113,4.9,4.9,71,0.00,,,0.00,WUHU216HW,2013-05-08 07:16:00,
2013-05-08 08:21:00,55.4,45.9,29.61,ESE,113,3.8,4.9,70,0.00,,,0.00,WUHU216HW,2013-05-08 07:21:00,
2013-05-08 08:26:00,55.8,46.3,29.61,ESE,113,4.0,4.9,70,0.00,,,0.00,WUHU216HW,2013-05-08 07:26:00,
2013-05-08 08:31:00,55.6,46.1,29.61,SE,135,5.1,5.1,70,0.00,,,0.00,WUHU216HW,2013-05-08 07:31:00,
2013-05-08 08:36:00,55.6,46.5,29.61,East,90,4.0,5.1,71,0.00,,,0.00,WUHU216HW,2013-05-08 07:36:00,
2013-05-08 08:41:00,55.6,46.5,29.61,SE,135,4.0,5.1,71,0.00,,,0.00,WUHU216HW,2013-05-08 07:41:00,
2013-05-08 08:46:00,55.8,46.5,29.60,East,90,3.8,7.2,71,0.00,,,0.00,WUHU216HW,2013-05-08 07:46:00,
2013-05-08 08:51:00,56.0,46.7,29.60,ENE,68,6.3,7.2,71,0.00,,,0.00,WUHU216HW,2013-05-08 07:51:00,
2013-05-08 08:56:00,56.2,46.9,29.60,ESE,113,4.0,6.3,71,0.00,,,0.00,WUHU216HW,2013-05-08 07:56:00,
2013-05-08 09:01:00,55.8,46.9,29.60,SE,135,2.5,6.3,72,0.00,,,0.00,WUHU216HW,2013-05-08 08:01:00,
2013-05-08 09:06:00,55.8,46.9,29.59,NE,45,3.1,4.7,72,0.00,,,0.00,WUHU216HW,2013-05-08 08:06:00,
2013-05-08 09:11:00,55.8,46.9,29.59,ESE,113,6.3,6.3,72,0.00,,,0.00,WUHU216HW,2013-05-08 08:11:00,
2013-05-08 09:16:00,55.8,46.9,29.59,ESE,113,4.7,6.3,72,0.00,,,0.00,WUHU216HW,2013-05-08 08:16:00,
2013-05-08 09:21:00,55.3,46.7,29.58,South,180,6.3,6.3,73,0.00,,,0.00,WUHU216HW,2013-05-08 08:21:00,
2013-05-08 09:26:00,55.1,46.9,29.58,East,90,7.2,7.2,74,0.00,,,0.00,WUHU216HW,2013-05-08 08:26:00,
2013-05-08 09:31:00,55.1,46.9,29.58,ESE,113,5.4,7.2,74,0.00,,,0.00,WUHU216HW,2013-05-08 08:31:00,
2013-05-08 09:36:00,55.3,47.1,29.58,SSE,158,6.5,7.2,74,0.00,,,0.00,WUHU216HW,2013-05-08 08:36:00,
2013-05-08 09:41:00,55.4,47.6,29.58,ESE,113,4.7,6.5,75,0.00,,,0.00,WUHU216HW,2013-05-08 08:41:00,
2013-05-08 09:46:00,55.4,47.6,29.57,SE,135,10.5,10.5,75,0.00,,,0.00,WUHU216HW,2013-05-08 08:46:00,
2013-05-08 09:51:00,55.3,47.4,29.57,ESE,113,8.1,10.5,75,0.00,,,0.00,WUHU216HW,2013-05-08 08:51:00,
2013-05-08 09:56:00,55.1,47.6,29.57,ENE,68,6.3,10.5,76,0.00,,,0.00,WUHU216HW,2013-05-08 08:56:00,
2013-05-08 10:01:00,55.1,47.6,29.57,ESE,113,5.4,6.3,76,0.00,,,0.00,WUHU216HW,2013-05-08 09:01:00,
2013-05-08 10:06:00,55.1,47.3,29.57,ENE,68,3.8,6.3,75,0.00,,,0.00,WUHU216HW,2013-05-08 09:06:00,
2013-05-08 10:11:00,55.4,47.3,29.56,SE,135,5.6,5.6,74,0.00,,,0.00,WUHU216HW,2013-05-08 09:11:00,
2013-05-08 10:16:00,55.6,47.4,29.56,SE,135,5.4,5.6,74,0.00,,,0.00,WUHU216HW,2013-05-08 09:16:00,
2013-05-08 10:22:00,55.8,47.3,29.55,ESE,113,3.4,5.6,73,0.00,,,0.00,WUHU216HW,2013-05-08 09:22:00,
2013-05-08 10:27:00,55.8,47.3,29.55,ESE,113,4.0,5.4,73,0.00,,,0.00,WUHU216HW,2013-05-08 09:27:00,
2013-05-08 10:32:00,56.2,47.6,29.55,East,90,4.5,6.3,73,0.00,,,0.00,WUHU216HW,2013-05-08 09:32:00,
2013-05-08 10:37:00,56.2,47.3,29.55,SSE,158,6.3,6.3,72,0.00,,,0.00,WUHU216HW,2013-05-08 09:37:00,
2013-05-08 10:42:00,56.2,47.6,29.55,SSE,158,5.8,6.3,73,0.00,,,0.00,WUHU216HW,2013-05-08 09:42:00,
2013-05-08 10:47:00,55.4,47.3,29.55,SSE,158,4.7,6.3,74,0.00,,,0.00,WUHU216HW,2013-05-08 09:47:00,
2013-05-08 10:52:00,55.4,47.3,29.55,East,90,6.9,6.9,74,0.00,,,0.00,WUHU216HW,2013-05-08 09:52:00,
2013-05-08 10:57:00,55.4,47.3,29.54,ESE,113,4.0,6.9,74,0.00,,,0.00,WUHU216HW,2013-05-08 09:57:00,
2013-05-08 11:02:00,55.6,47.4,29.54,SE,135,4.0,6.9,74,0.00,,,0.00,WUHU216HW,2013-05-08 10:02:00,
2013-05-08 11:07:00,55.8,47.6,29.54,SE,135,2.5,4.7,74,0.00,,,0.00,WUHU216HW,2013-05-08 10:07:00,
2013-05-08 11:12:00,55.8,47.6,29.54,ESE,113,5.4,5.4,74,0.00,,,0.00,WUHU216HW,2013-05-08 10:12:00,
2013-05-08 11:17:00,55.8,47.6,29.53,East,90,2.9,5.4,74,0.00,,,0.00,WUHU216HW,2013-05-08 10:17:00,
2013-05-08 11:22:00,55.6,47.4,29.53,ENE,68,3.4,5.4,74,0.00,,,0.00,WUHU216HW,2013-05-08 10:22:00,
2013-05-08 11:27:00,55.4,47.6,29.53,SE,135,4.9,4.9,75,0.00,,,0.00,WUHU216HW,2013-05-08 10:27:00,
2013-05-08 11:32:00,55.4,47.6,29.52,ENE,68,5.6,5.6,75,0.00,,,0.00,WUHU216HW,2013-05-08 10:32:00,
2013-05-08 11:37:00,55.6,47.8,29.52,SE,135,4.0,5.6,75,0.00,,,0.00,WUHU216HW,2013-05-08 10:37:00,
2013-05-08 11:42:00,55.8,48.0,29.51,SE,135,8.7,8.7,75,0.00,,,0.00,WUHU216HW,2013-05-08 10:42:00,
2013-05-08 11:47:00,55.8,48.3,29.51,East,90,2.9,8.7,76,0.00,,,0.00,WUHU216HW,2013-05-08 10:47:00,
2013-05-08 11:52:00,55.8,48.3,29.51,East,90,3.1,8.7,76,0.00,,,0.00,WUHU216HW,2013-05-08 10:52:00,
2013-05-08 11:57:00,55.4,48.6,29.51,East,90,6.9,6.9,78,0.00,,,0.00,WUHU216HW,2013-05-08 10:57:00,
2013-05-08 12:02:00,55.4,49.0,29.50,East,90,3.1,6.9,79,0.00,,,0.00,WUHU216HW,2013-05-08 11:02:00,
2013-05-08 12:07:00,55.3,48.8,29.50,East,90,5.8,6.9,79,0.00,,,0.00,WUHU216HW,2013-05-08 11:07:00,
2013-05-08 12:12:00,55.4,49.0,29.50,ESE,113,9.2,9.2,79,0.00,,,0.00,WUHU216HW,2013-05-08 11:12:00,
2013-05-08 12:17:00,55.8,49.3,29.50,NNE,23,6.3,9.2,79,0.00,,,0.00,WUHU216HW,2013-05-08 11:17:00,
2013-05-08 12:22:00,56.0,49.5,29.50,SE,135,7.4,7.4,79,0.00,,,0.00,WUHU216HW,2013-05-08 11:22:00,
2013-05-08 12:27:00,56.0,49.5,29.50,ESE,113,7.4,7.4,79,0.00,,,0.00,WUHU216HW,2013-05-08 11:27:00,
2013-05-08 12:32:00,56.0,49.9,29.50,ESE,113,3.1,7.4,80,0.00,,,0.00,WUHU216HW,2013-05-08 11:32:00,
2013-05-08 12:37:00,55.8,50.1,29.50,ESE,113,3.1,7.4,81,0.00,,,0.00,WUHU216HW,2013-05-08 11:37:00,
2013-05-08 12:42:00,55.8,50.1,29.50,ENE,68,2.5,3.1,81,0.00,,,0.00,WUHU216HW,2013-05-08 11:42:00,
2013-05-08 12:47:00,55.6,50.1,29.50,ESE,113,3.1,3.1,82,0.00,,,0.00,WUHU216HW,2013-05-08 11:47:00,
2013-05-08 12:52:00,55.8,50.7,29.49,East,90,3.8,6.9,83,0.01,,,0.00,WUHU216HW,2013-05-08 11:52:00,
2013-05-08 12:57:00,55.8,50.7,29.49,ENE,68,4.3,6.9,83,0.01,,,0.01,WUHU216HW,2013-05-08 11:57:00,
2013-05-08 13:02:00,56.0,50.5,29.48,SE,135,5.8,5.8,82,0.01,,,0.01,WUHU216HW,2013-05-08 12:02:00,
2013-05-08 13:07:00,56.2,50.4,29.48,ENE,68,6.9,6.9,81,0.01,,,0.01,WUHU216HW,2013-05-08 12:07:00,
2013-05-08 13:12:00,56.5,50.8,29.48,NNE,23,4.5,6.9,81,0.01,,,0.01,WUHU216HW,2013-05-08 12:12:00,
2013-05-08 13:17:00,56.5,50.8,29.48,ENE,68,8.3,8.3,81,0.01,,,0.01,WUHU216HW,2013-05-08 12:17:00,
2013-05-08 13:22:00,56.7,51.6,29.47,ESE,113,3.6,8.3,83,0.01,,,0.01,WUHU216HW,2013-05-08 12:22:00,
2013-05-08 13:27:00,56.2,51.0,29.47,NE,45,3.6,8.3,83,0.01,,,0.01,WUHU216HW,2013-05-08 12:27:00,
2013-05-08 13:32:00,56.2,50.7,29.46,SE,135,6.3,6.3,82,0.01,,,0.01,WUHU216HW,2013-05-08 12:32:00,
2013-05-08 13:37:00,56.2,50.7,29.46,ESE,113,9.8,9.8,82,0.01,,,0.01,WUHU216HW,2013-05-08 12:37:00,
2013-05-08 13:42:00,56.3,50.9,29.46,ENE,68,5.8,9.8,82,0.02,,,0.02,WUHU216HW,2013-05-08 12:42:00,
2013-05-08 13:47:00,56.3,50.9,29.46,ENE,68,2.5,9.8,82,0.02,,,0.02,WUHU216HW,2013-05-08 12:47:00,
2013-05-08 13:52:00,56.2,50.7,29.46,SE,135,5.8,5.8,82,0.01,,,0.02,WUHU216HW,2013-05-08 12:52:00,
2013-05-08 13:57:00,56.2,50.7,29.46,ESE,113,2.9,5.8,82,0.01,,,0.02,WUHU216HW,2013-05-08 12:57:00,
2013-05-08 14:02:00,56.0,50.5,29.46,ESE,113,7.6,7.6,82,0.01,,,0.02,WUHU216HW,2013-05-08 13:02:00,
2013-05-08 14:07:00,56.0,50.5,29.45,NNE,23,2.2,7.6,82,0.01,,,0.02,WUHU216HW,2013-05-08 13:07:00,
2013-05-08 14:12:00,56.2,50.7,29.46,ENE,68,2.5,7.6,82,0.01,,,0.02,WUHU216HW,2013-05-08 13:12:00,
2013-05-08 14:17:00,56.0,50.5,29.46,NW,315,3.4,3.4,82,0.01,,,0.02,WUHU216HW,2013-05-08 13:17:00,
2013-05-08 14:22:00,56.0,50.5,29.46,SSE,158,2.2,3.4,82,0.01,,,0.02,WUHU216HW,2013-05-08 13:22:00,
2013-05-08 14:27:00,56.0,50.9,29.46,ESE,113,3.4,3.4,83,0.01,,,0.02,WUHU216HW,2013-05-08 13:27:00,
2013-05-08 14:32:00,56.0,50.9,29.46,ESE,113,3.1,3.4,83,0.01,,,0.02,WUHU216HW,2013-05-08 13:32:00,
2013-05-08 14:37:00,56.2,51.3,29.46,SE,135,2.7,3.4,84,0.00,,,0.02,WUHU216HW,2013-05-08 13:37:00,
2013-05-08 14:42:00,56.0,51.1,29.46,ENE,68,2.2,2.7,84,0.00,,,0.02,WUHU216HW,2013-05-08 13:42:00,
2013-05-08 14:47:00,55.8,50.9,29.46,ESE,113,1.8,2.7,84,0.00,,,0.02,WUHU216HW,2013-05-08 13:47:00,
2013-05-08 14:52:00,56.0,51.1,29.45,SE,135,1.1,2.2,84,0.00,,,0.02,WUHU216HW,2013-05-08 13:52:00,
2013-05-08 14:57:00,56.0,51.9,29.45,SE,135,4.7,4.7,86,0.00,,,0.02,WUHU216HW,2013-05-08 13:57:00,
2013-05-08 15:02:00,55.8,51.9,29.45,East,90,3.1,4.7,87,0.01,,,0.02,WUHU216HW,2013-05-08 14:02:00,
2013-05-08 15:07:00,55.4,51.9,29.45,ESE,113,4.0,4.7,88,0.02,,,0.04,WUHU216HW,2013-05-08 14:07:00,
2013-05-08 15:12:00,55.3,51.8,29.45,East,90,3.6,4.0,88,0.03,,,0.05,WUHU216HW,2013-05-08 14:12:00,
2013-05-08 15:17:00,55.1,51.8,29.46,ENE,68,0.9,4.0,89,0.04,,,0.05,WUHU216HW,2013-05-08 14:17:00,
2013-05-08 15:22:00,55.1,51.8,29.46,East,90,4.9,4.9,89,0.04,,,0.06,WUHU216HW,2013-05-08 14:22:00,
2013-05-08 15:27:00,55.1,51.6,29.47,East,90,2.9,4.9,88,0.05,,,0.07,WUHU216HW,2013-05-08 14:27:00,
2013-05-08 15:32:00,55.1,51.6,29.46,SE,135,1.3,4.9,88,0.05,,,0.07,WUHU216HW,2013-05-08 14:32:00,
2013-05-08 15:37:00,54.9,51.7,29.46,ESE,113,3.1,3.1,89,0.05,,,0.07,WUHU216HW,2013-05-08 14:37:00,
2013-05-08 15:42:00,54.7,51.2,29.46,SSE,158,6.9,6.9,88,0.05,,,0.07,WUHU216HW,2013-05-08 14:42:00,
2013-05-08 15:47:00,54.5,51.0,29.46,East,90,3.4,6.9,88,0.05,,,0.07,WUHU216HW,2013-05-08 14:47:00,
2013-05-08 15:52:00,54.4,50.6,29.46,SE,135,2.5,6.9,87,0.05,,,0.07,WUHU216HW,2013-05-08 14:52:00,
2013-05-08 15:57:00,54.4,50.6,29.46,ESE,113,2.9,3.6,87,0.05,,,0.07,WUHU216HW,2013-05-08 14:57:00,
2013-05-08 16:02:00,54.2,50.0,29.46,ESE,113,4.0,4.0,86,0.04,,,0.07,WUHU216HW,2013-05-08 15:02:00,
2013-05-08 16:07:00,54.2,50.0,29.46,ESE,113,8.5,8.5,86,0.02,,,0.07,WUHU216HW,2013-05-08 15:07:00,
2013-05-08 16:12:00,54.0,49.9,29.47,East,90,3.1,8.5,86,0.02,,,0.07,WUHU216HW,2013-05-08 15:12:00,
2013-05-08 16:17:00,54.0,49.6,29.47,East,90,6.0,6.0,85,0.01,,,0.07,WUHU216HW,2013-05-08 15:17:00,
2013-05-08 16:22:00,54.0,49.6,29.47,East,90,2.2,6.0,85,0.00,,,0.07,WUHU216HW,2013-05-08 15:22:00,
2013-05-08 16:27:00,53.8,49.4,29.47,ESE,113,0.9,6.0,85,0.00,,,0.07,WUHU216HW,2013-05-08 15:27:00,
2013-05-08 16:32:00,53.8,49.7,29.47,East,90,3.6,3.6,86,0.00,,,0.07,WUHU216HW,2013-05-08 15:32:00,
2013-05-08 16:37:00,53.8,49.7,29.47,East,90,4.0,4.0,86,0.00,,,0.07,WUHU216HW,2013-05-08 15:37:00,
2013-05-08 16:42:00,53.8,49.7,29.46,East,90,3.4,4.0,86,0.00,,,0.07,WUHU216HW,2013-05-08 15:42:00,
2013-05-08 16:47:00,53.8,49.4,29.46,ESE,113,3.8,4.3,85,0.00,,,0.07,WUHU216HW,2013-05-08 15:47:00,
2013-05-08 16:52:00,53.8,49.4,29.46,ESE,113,5.4,5.4,85,0.00,,,0.07,WUHU216HW,2013-05-08 15:52:00,
2013-05-08 16:57:00,53.8,49.1,29.46,SSE,158,4.0,5.4,84,0.00,,,0.07,WUHU216HW,2013-05-08 15:57:00,
2013-05-08 17:02:00,54.0,49.6,29.46,SSE,158,1.1,5.4,85,0.00,,,0.07,WUHU216HW,2013-05-08 16:02:00,
2013-05-08 17:07:00,54.0,49.6,29.46,ENE,68,3.6,3.6,85,0.00,,,0.07,WUHU216HW,2013-05-08 16:07:00,
2013-05-08 17:12:00,54.0,49.6,29.46,ESE,113,2.0,3.6,85,0.00,,,0.07,WUHU216HW,2013-05-08 16:12:00,
2013-05-08 17:17:00,54.0,49.0,29.46,ENE,68,3.6,4.7,83,0.00,,,0.07,WUHU216HW,2013-05-08 16:17:00,
2013-05-08 17:22:00,54.0,49.0,29.46,ESE,113,0.9,4.7,83,0.00,,,0.07,WUHU216HW,2013-05-08 16:22:00,
2013-05-08 17:27:00,54.0,48.6,29.46,ENE,68,1.8,3.6,82,0.00,,,0.07,WUHU216HW,2013-05-08 16:27:00,
2013-05-08 17:32:00,54.0,48.6,29.46,SE,135,2.9,3.8,82,0.00,,,0.07,WUHU216HW,2013-05-08 16:32:00,
2013-05-08 17:38:00,54.0,48.6,29.46,SE,135,4.7,4.7,82,0.00,,,0.07,WUHU216HW,2013-05-08 16:38:00,
2013-05-08 17:43:00,54.0,48.6,29.46,SE,135,1.8,4.7,82,0.00,,,0.07,WUHU216HW,2013-05-08 16:43:00,
2013-05-08 17:48:00,54.0,48.6,29.46,SE,135,4.0,4.7,82,0.00,,,0.07,WUHU216HW,2013-05-08 16:48:00,
2013-05-08 17:53:00,54.0,48.6,29.46,ESE,113,4.0,4.0,82,0.00,,,0.07,WUHU216HW,2013-05-08 16:53:00,
2013-05-08 17:58:00,54.0,48.6,29.46,ESE,113,1.8,4.0,82,0.00,,,0.07,WUHU216HW,2013-05-08 16:58:00,
2013-05-08 18:03:00,54.0,48.6,29.46,SSE,158,2.5,3.1,82,0.00,,,0.07,WUHU216HW,2013-05-08 17:03:00,
2013-05-08 18:08:00,54.0,48.6,29.46,ESE,113,4.5,4.5,82,0.00,,,0.07,WUHU216HW,2013-05-08 17:08:00,
2013-05-08 18:13:00,53.8,48.5,29.46,SE,135,1.6,5.8,82,0.00,,,0.07,WUHU216HW,2013-05-08 17:13:00,
2013-05-08 18:18:00,53.6,48.3,29.46,SSE,158,5.8,5.8,82,0.00,,,0.07,WUHU216HW,2013-05-08 17:18:00,
2013-05-08 18:23:00,53.6,48.6,29.46,ESE,113,1.6,5.8,83,0.00,,,0.07,WUHU216HW,2013-05-08 17:23:00,
2013-05-08 18:28:00,53.3,48.2,29.47,ENE,68,7.8,7.8,83,0.00,,,0.07,WUHU216HW,2013-05-08 17:28:00,
2013-05-08 18:33:00,53.1,48.1,29.47,ESE,113,2.5,7.8,83,0.00,,,0.07,WUHU216HW,2013-05-08 17:33:00,
2013-05-08 18:38:00,52.9,47.9,29.47,ESE,113,7.4,7.4,83,0.00,,,0.07,WUHU216HW,2013-05-08 17:38:00,
2013-05-08 18:43:00,52.7,47.7,29.46,ESE,113,5.1,7.4,83,0.00,,,0.07,WUHU216HW,2013-05-08 17:43:00,
2013-05-08 18:48:00,52.7,47.7,29.46,SSE,158,1.8,7.4,83,0.00,,,0.07,WUHU216HW,2013-05-08 17:48:00,
2013-05-08 18:53:00,52.6,47.5,29.46,East,90,0.9,2.5,83,0.00,,,0.07,WUHU216HW,2013-05-08 17:53:00,
2013-05-08 18:58:00,52.6,47.5,29.46,ESE,113,1.8,1.8,83,0.00,,,0.07,WUHU216HW,2013-05-08 17:58:00,
2013-05-08 19:03:00,52.7,47.4,29.47,SE,135,1.8,1.8,82,0.00,,,0.07,WUHU216HW,2013-05-08 18:03:00,
2013-05-08 19:08:00,52.7,47.4,29.46,East,90,5.4,5.4,82,0.00,,,0.07,WUHU216HW,2013-05-08 18:08:00,
2013-05-08 19:13:00,52.9,47.6,29.46,East,90,5.6,5.6,82,0.00,,,0.07,WUHU216HW,2013-05-08 18:13:00,
2013-05-08 19:18:00,52.9,47.3,29.46,East,90,2.7,5.6,81,0.00,,,0.07,WUHU216HW,2013-05-08 18:18:00,
2013-05-08 19:23:00,53.1,47.4,29.46,East,90,4.0,5.6,81,0.00,,,0.07,WUHU216HW,2013-05-08 18:23:00,
2013-05-08 19:28:00,53.1,47.2,29.46,SE,135,2.5,4.0,80,0.00,,,0.07,WUHU216HW,2013-05-08 18:28:00,
2013-05-08 19:33:00,53.1,47.2,29.46,SE,135,2.7,3.8,80,0.00,,,0.07,WUHU216HW,2013-05-08 18:33:00,
2013-05-08 19:38:00,53.1,47.2,29.46,SSE,158,2.2,2.7,80,0.00,,,0.07,WUHU216HW,2013-05-08 18:38:00,
2013-05-08 19:43:00,52.9,47.0,29.46,ESE,113,5.4,5.4,80,0.00,,,0.07,WUHU216HW,2013-05-08 18:43:00,
2013-05-08 19:48:00,52.9,46.3,29.46,SSE,158,3.1,5.4,78,0.00,,,0.07,WUHU216HW,2013-05-08 18:48:00,
2013-05-08 19:53:00,52.9,46.3,29.47,SSE,158,5.4,5.4,78,0.00,,,0.07,WUHU216HW,2013-05-08 18:53:00,
2013-05-08 19:58:00,52.7,46.1,29.47,ENE,68,3.4,5.4,78,0.00,,,0.07,WUHU216HW,2013-05-08 18:58:00,
2013-05-08 20:03:00,52.4,45.7,29.47,ESE,113,5.1,5.4,78,0.00,,,0.07,WUHU216HW,2013-05-08 19:03:00,
2013-05-08 20:08:00,52.2,45.5,29.47,East,90,3.4,5.1,78,0.00,,,0.07,WUHU216HW,2013-05-08 19:08:00,
2013-05-08 20:13:00,52.0,45.4,29.48,South,180,2.5,5.1,78,0.00,,,0.07,WUHU216HW,2013-05-08 19:13:00,
2013-05-08 20:18:00,51.8,45.2,29.48,ESE,113,4.7,6.7,78,0.00,,,0.07,WUHU216HW,2013-05-08 19:18:00,
2013-05-08 20:23:00,51.7,45.0,29.48,SSE,158,0.7,6.7,78,0.00,,,0.07,WUHU216HW,2013-05-08 19:23:00,
2013-05-08 20:28:00,51.7,45.0,29.48,SE,135,3.1,4.7,78,0.00,,,0.07,WUHU216HW,2013-05-08 19:28:00,
2013-05-08 20:33:00,51.7,45.0,29.48,ESE,113,5.1,5.1,78,0.00,,,0.07,WUHU216HW,2013-05-08 19:33:00,
2013-05-08 20:38:00,51.5,44.6,29.48,SE,135,5.1,5.1,77,0.00,,,0.07,WUHU216HW,2013-05-08 19:38:00,
2013-05-08 20:43:00,51.3,44.4,29.48,SSW,203,3.1,5.1,77,0.00,,,0.07,WUHU216HW,2013-05-08 19:43:00,
2013-05-08 20:48:00,51.1,44.2,29.48,SE,135,2.7,5.1,77,0.00,,,0.07,WUHU216HW,2013-05-08 19:48:00,
2013-05-08 20:53:00,50.8,43.5,29.48,SE,135,2.5,3.1,76,0.00,,,0.07,WUHU216HW,2013-05-08 19:53:00,
2013-05-08 20:58:00,50.4,43.1,29.48,East,90,2.9,2.9,76,0.00,,,0.07,WUHU216HW,2013-05-08 19:58:00,
2013-05-08 21:03:00,50.4,42.8,29.48,East,90,4.0,4.0,75,0.00,,,0.07,WUHU216HW,2013-05-08 20:03:00,
2013-05-08 21:08:00,50.4,42.8,29.48,SE,135,1.1,4.0,75,0.00,,,0.07,WUHU216HW,2013-05-08 20:08:00,
2013-05-08 21:13:00,50.0,42.8,29.48,SE,135,3.1,4.0,76,0.00,,,0.07,WUHU216HW,2013-05-08 20:13:00,
2013-05-08 21:18:00,50.0,42.8,29.48,East,90,1.6,3.1,76,0.00,,,0.07,WUHU216HW,2013-05-08 20:18:00,
2013-05-08 21:23:00,50.0,42.8,29.48,East,90,0.4,3.1,76,0.00,,,0.07,WUHU216HW,2013-05-08 20:23:00,
2013-05-08 21:28:00,49.7,42.4,29.48,NE,45,1.3,2.5,76,0.00,,,0.07,WUHU216HW,2013-05-08 20:28:00,
2013-05-08 21:33:00,49.7,42.8,29.48,SE,135,3.6,3.6,77,0.00,,,0.07,WUHU216HW,2013-05-08 20:33:00,
2013-05-08 21:38:00,49.5,42.6,29.48,SE,135,2.9,3.6,77,0.00,,,0.07,WUHU216HW,2013-05-08 20:38:00,
2013-05-08 21:43:00,49.5,42.6,29.48,SE,135,1.6,3.6,77,0.00,,,0.07,WUHU216HW,2013-05-08 20:43:00,
2013-05-08 21:48:00,49.3,42.7,29.49,ESE,113,1.6,2.9,78,0.00,,,0.07,WUHU216HW,2013-05-08 20:48:00,
2013-05-08 21:53:00,49.3,42.7,29.49,East,90,1.1,1.6,78,0.00,,,0.07,WUHU216HW,2013-05-08 20:53:00,
2013-05-08 21:58:00,49.5,42.8,29.49,ESE,113,2.0,2.0,78,0.00,,,0.07,WUHU216HW,2013-05-08 20:58:00,
2013-05-08 22:03:00,49.5,42.8,29.49,SE,135,1.8,2.0,78,0.00,,,0.07,WUHU216HW,2013-05-08 21:03:00,
2013-05-08 22:08:00,49.3,42.7,29.49,SE,135,3.4,3.4,78,0.00,,,0.07,WUHU216HW,2013-05-08 21:08:00,
2013-05-08 22:13:00,49.3,42.7,29.49,ESE,113,1.8,3.4,78,0.00,,,0.07,WUHU216HW,2013-05-08 21:13:00,
2013-05-08 22:18:00,49.1,42.8,29.49,ESE,113,0.4,3.4,79,0.00,,,0.07,WUHU216HW,2013-05-08 21:18:00,
2013-05-08 22:23:00,48.8,42.8,29.49,ESE,113,0.4,1.8,80,0.00,,,0.07,WUHU216HW,2013-05-08 21:23:00,
2013-05-08 22:28:00,48.8,42.8,29.49,ESE,113,0.0,0.4,80,0.00,,,0.07,WUHU216HW,2013-05-08 21:28:00,
2013-05-08 22:33:00,48.6,42.7,29.49,ESE,113,0.0,0.4,80,0.00,,,0.07,WUHU216HW,2013-05-08 21:33:00,
2013-05-08 22:38:00,48.4,42.5,29.49,ESE,113,0.0,0.0,80,0.00,,,0.07,WUHU216HW,2013-05-08 21:38:00,
2013-05-08 22:43:00,48.1,42.1,29.50,ESE,113,0.2,0.2,80,0.00,,,0.07,WUHU216HW,2013-05-08 21:43:00,
2013-05-08 22:48:00,48.1,42.1,29.50,ESE,113,0.0,0.2,80,0.00,,,0.07,WUHU216HW,2013-05-08 21:48:00,
2013-05-08 22:53:00,47.9,42.3,29.49,ESE,113,0.0,0.2,81,0.00,,,0.07,WUHU216HW,2013-05-08 21:53:00,
2013-05-08 22:58:00,47.7,41.9,29.50,SE,135,0.4,0.4,80,0.00,,,0.07,WUHU216HW,2013-05-08 21:58:00,
2013-05-08 23:03:00,47.5,41.9,29.50,ESE,113,0.7,0.7,81,0.00,,,0.07,WUHU216HW,2013-05-08 22:03:00,
2013-05-08 23:08:00,47.5,41.9,29.50,SE,135,0.2,0.7,81,0.00,,,0.07,WUHU216HW,2013-05-08 22:08:00,
2013-05-08 23:13:00,47.5,42.3,29.50,SE,135,0.2,0.7,82,0.00,,,0.07,WUHU216HW,2013-05-08 22:13:00,
2013-05-08 23:18:00,47.7,42.8,29.50,ENE,68,2.2,2.2,83,0.00,,,0.07,WUHU216HW,2013-05-08 22:18:00,
2013-05-08 23:23:00,47.9,42.9,29.50,ESE,113,0.4,2.2,83,0.00,,,0.07,WUHU216HW,2013-05-08 22:23:00,
2013-05-08 23:28:00,47.9,42.7,29.50,SE,135,0.0,2.2,82,0.00,,,0.07,WUHU216HW,2013-05-08 22:28:00,
2013-05-08 23:33:00,47.9,42.9,29.50,East,90,0.2,0.7,83,0.00,,,0.07,WUHU216HW,2013-05-08 22:33:00,
2013-05-08 23:38:00,48.1,43.1,29.50,East,90,0.2,0.7,83,0.00,,,0.07,WUHU216HW,2013-05-08 22:38:00,
2013-05-08 23:43:00,47.9,42.7,29.50,East,90,0.0,0.2,82,0.00,,,0.07,WUHU216HW,2013-05-08 22:43:00,
2013-05-08 23:48:00,47.9,42.7,29.50,East,90,0.0,0.2,82,0.00,,,0.07,WUHU216HW,2013-05-08 22:48:00,
2013-05-08 23:53:00,47.9,42.9,29.50,ESE,113,0.0,0.4,83,0.00,,,0.07,WUHU216HW,2013-05-08 22:53:00,
2013-05-08 23:58:00,48.1,43.1,29.50,ESE,113,0.0,0.4,83,0.00,,,0.07,WUHU216HW,2013-05-08 22:58:00,